This is the latest recevied weather packets stored in our database for station/object K0APR. If no packets are shown the sender has not sent any weather packets the latest 10 day(s).
| Time | Temp. | Humidity | Pressure | Rain* | Wind** | Luminosity | Snow |
|---|---|---|---|---|---|---|---|
| 1788504529 | 25° C | 89% | 1009.2 hPa | 0 mm | - | 0 W/m² | - |
| 1788504226 | 25° C | 89% | 1009.5 hPa | 0 mm | - | 0 W/m² | - |
| 1788503921 | 25° C | 88% | 1009.2 hPa | 0 mm | - | 0 W/m² | - |
| 1788503618 | 25° C | 88% | 1009.2 hPa | 0 mm | - | 0 W/m² | - |
| 1788503318 | 25° C | 89% | 1009.2 hPa | 0 mm | - | 0 W/m² | - |
| 1788503014 | 25° C | 88% | 1009.2 hPa | 0 mm | - | 0 W/m² | - |
| 1788502709 | 25° C | 88% | 1009.2 hPa | 0 mm | - | 0 W/m² | - |
| 1788502405 | 25.56° C | 88% | 1009.2 hPa | 0 mm | - | 0 W/m² | - |
| 1788502101 | 25° C | 89% | 1009.2 hPa | 0 mm | - | 0 W/m² | - |
| 1788501797 | 25° C | 88% | 1009.2 hPa | 0 mm | - | 0 W/m² | - |
| 1788501492 | 25° C | 88% | 1009.2 hPa | 0 mm | - | 0 W/m² | - |
| 1788501188 | 25° C | 88% | 1009.2 hPa | 0 mm | - | 0 W/m² | - |
| 1788500883 | 25° C | 88% | 1009.2 hPa | 0 mm | - | 0 W/m² | - |
| 1788500579 | 25.56° C | 88% | 1009.2 hPa | 0 mm | - | 0 W/m² | - |
| 1788500274 | 25.56° C | 87% | 1009.2 hPa | 0 mm | - | 0 W/m² | - |
| 1788499998 | 25.56° C | 87% | 1009.2 hPa | 0 mm | - | 0 W/m² | - |
| 1788499670 | 25.56° C | 86% | 1009.2 hPa | 0 mm | - | 0 W/m² | - |
| 1788499366 | 26.11° C | 85% | 1008.8 hPa | 0 mm | - | 0 W/m² | - |
| 1788499062 | 26.11° C | 85% | 1008.8 hPa | 0 mm | - | 0 W/m² | - |
| 1788498757 | 26.11° C | 84% | 1009.2 hPa | 0 mm | - | 0 W/m² | - |
| 1788498452 | 26.11° C | 84% | 1008.4 hPa | 0 mm | - | 0 W/m² | - |
| 1788498149 | 26.11° C | 84% | 1008.8 hPa | 0 mm | - | 0 W/m² | - |
| 1788497849 | 26.67° C | 84% | 1008.8 hPa | 0 mm | - | 0 W/m² | - |
| 1788497544 | 26.11° C | 84% | 1008.8 hPa | 0 mm | - | 0 W/m² | - |
| 1788497238 | 26.11° C | 84% | 1008.8 hPa | 0 mm | - | 0 W/m² | - |
* Rain latest hour (hover to see other rain measurements)
** Current wind speed in m/s (hover to see current wind gust speed)